Other Public Products
Issued by NWS Grand Forks, ND

Home | Current Version | Previous Version | Graphics & Text | Print | Product List | Glossary On
Versions: 1 2 3 4 5 6 7 8 9 10 11 12 13 14 15 16 17 18 19 20 21 22 23 24 25 26 27 28 29 30 31 32 33 34 35 36 37 38 39 40 41 42 43 44 45 46 47 48 49 50
000
FPUS83 KFGF 220231
OPUFGF
PRAIRIE TO PINES WEATHER ROUNDUP
NATIONAL WEATHER SERVICE EASTERN NORTH DAKOTA/GRAND FORKS ND
900 PM CDT MON JUL 21 2014

 **SATELLITE DATA USED TO AUGMENT SKY COVER AT AUTOMATED STATIONS**
 *****  WEATHER ACROSS EASTERN NORTH DAKOTA  *****

CITY           SKY/WX    TMP DP  RH WIND       PRES   REMARKS
GRAND FORKS    TSTM      68  68 100 N24G33    29.69F FOG
GRAND FORKS AF HVY RAIN  68  68 100 W15       29.84R FOG
GRAND CITY NWS   N/A     66 N/A N/A VRB18       N/A
BUXTON           N/A     67  66  99 W23G44      N/A
DEVILS LAKE    CLOUDY    64  61  88 E18       29.81F
FARGO          TSTM      68  65  90 NW25G46   29.74R FOG
WAHPETON ARPT  CLOUDY    82  72  69 S14       29.70R
$$

 *****  WEATHER ACROSS CENTRAL AND WESTERN NORTH DAKOTA  *****

CITY           SKY/WX    TMP DP  RH WIND       PRES   REMARKS
JAMESTOWN      LGT RAIN  68  62  81 N32G48    29.73F
BISMARCK       CLOUDY    67  63  87 N15       29.87R
MINOT          CLOUDY    66  63  90 N5        29.88R
MINOT AFB      CLOUDY    67  66  97 N7        29.87R
GARRISON         N/A     66  63  90 NE3       29.90R
WILLISTON      MOCLDY    74  57  55 NE10      29.95R
DICKINSON      MOCLDY    67  61  81 N14       29.94R
HETTINGER      CLEAR     71  63  75 N13G25    29.95R
$$

 *****  OTHER OBSERVATIONS NORTHEAST NORTH DAKOTA  *****

CITY           SKY/WX    TMP DP  RH WIND       PRES   REMARKS
WALHALLA         N/A     64  64 100 NE5         N/A
LANGDON        RAIN      63  63 100 NE21      29.81F
CAVALIER       LGT RAIN  66  66 100 NE15G21   29.80F
GRAFTON        RAIN      66  66 100 NE26G37   29.74F
CANDO          RAIN      66  64  94 NE5       29.88R
FORT TOTTEN    NOT AVBL
ROLLA          FAIR      63  63 100 NE8       29.88R
RUGBY          LGT RAIN  64  64 100 NE8       29.88R
 ***** THE ABOVE OBSERVATIONS ARE NON NWS ARE NOT QUALITY
        CONTROLLED AND MAY MIS-REPORT RAIN FOR SNOW...
$$

 *****  OTHER OBSERVATIONS SOUTHEAST NORTH DAKOTA *****

CITY           SKY/WX    TMP DP  RH WIND       PRES   REMARKS
COOPERSTOWN    NOT AVBL
VALLEY CITY    LGT RAIN  66  66 100 NW25G41   29.73S
OAKES          NOT AVBL
GWINNER          N/A     70  68  94 W10G23    29.74F
BUFFALO          N/A     67  64  91 N20         N/A
WYNDMERE       NOT AVBL
 ***** THE ABOVE OBSERVATIONS ARE NON NWS ARE NOT QUALITY
       CONTROLLED AND MAY MIS-REPORT RAIN FOR SNOW...
$$

  *****  WEATHER ACROSS NORTHERN MINNESOTA  *****

CITY           SKY/WX    TMP DP  RH WIND       PRES   REMARKS
FLAG ISLAND    CLOUDY    70  64  83 NE18      29.79F
WARROAD        CLOUDY    72  66  83 N20G35    29.75F
ROSEAU         CLOUDY    72  64  78 N18G28    29.73F
HALLOCK        TSTM      66  64  94 NW20G37   29.86R
THF RVR FALLS  CLOUDY    72  68  88 NW18G26   29.60F THUNDER
HALSTAD          N/A     66  64  93 NW25G45     N/A
FOSSTON        CLOUDY    81  73  78 S12       29.67F
BAUDETTE       MOCLDY    77  63  61 N18G26    29.76F
WASKISH        PTCLDY    81  73  78 E3        29.71F
CROOKSTON      TSTM      68  66  94 W40G52    29.80R
$$
  *****  WEATHER ACROSS CENTRAL AND WEST MINNESOTA  *****

CITY           SKY/WX    TMP DP  RH WIND       PRES   REMARKS
BEMIDJI        CLOUDY    82  75  79 SE9       29.72S
PARK RAPIDS    CLOUDY    82  75  79 SE14      29.72F
WADENA         CLOUDY    81  73  78 S15G24    29.74R
DETROIT LAKES  CLOUDY    82  73  74 S15G21    29.72S
MOORHEAD       TSTM      77  68  73 NW31G48   29.77R
FERGUS FALLS   CLOUDY    82  72  69 S14       29.71R
ELBOW LAKE     FAIR      80  74  82 S21G26    29.72R
MORRIS MN      MOCLDY    79  73  83 S13       29.71F
STAPLES        CLOUDY    82  73  74 S8        29.74S
WHEATON        MOCLDY    79  73  83 S10G17    29.72R
$$
  *****  WEATHER ELSEWHERE ACROSS MINNESOTA  *****

CITY           SKY/WX    TMP DP  RH WIND       PRES   REMARKS
DULUTH         MOCLDY    81  73  76 S10       29.83F
INTRNTL FALLS  MOCLDY    80  73  79 CALM      29.76F
ELY            PTCLDY    79  70  73 SE5       29.84S
CLOQUET        MOCLDY    81  72  74 SE5       29.83S
BRAINERD       CLOUDY    81  74  79 SE10      29.76S
HIBBING        PTCLDY    82  74  76 S6        29.80F
ALEXANDRIA     CLOUDY    81  73  76 S16G23    29.76F
SAINT CLOUD    CLOUDY    85  74  69 S13G23    29.78S HX  92
MINNEAPOLIS    MOCLDY    85  74  69 SE13      29.83F HX  92
$$

  *****  WEATHER ACROSS SOUTH DAKOTA  *****

CITY           SKY/WX    TMP DP  RH WIND       PRES   REMARKS
SIOUX FALLS    PTCLDY    84  78  82 S12       29.77F HX  95
BROOKINGS      NOT AVBL
WATERTOWN      CLEAR     81  76  84 S14       29.74F
HURON          CLEAR     87  77  72 S7        29.72R HX  99
SISSETON         N/A     81  77  88 S9        29.69R
ABERDEEN       MOCLDY    74  68  81 N13       29.75R
MITCHELL       PTCLDY    88  80  77 S7        29.74R HX 104
PIERRE         CLEAR     88  66  48 NW8       29.76R HX  90
MOBRIDGE       PTCLDY    72  64  76 N10       29.79R
RAPID CITY     PTCLDY    80  58  46 N16       29.91R
$$

  *****  SOME WEATHER IN NEARBY STATES *****

CITY           SKY/WX    TMP DP  RH WIND       PRES   REMARKS
GLASGOW MT     MOCLDY    78  51  38 CALM      29.95R
GREAT FALLS MT SUNNY     78  39  24 NW9       30.00R
CHEYENNE WY    PTCLDY    79  42  26 S6        30.18F
SCOTTSBLUFF NE PTCLDY    81  56  42 SE9       29.99S
OMAHA NE       MOCLDY    91  77  63 S15       29.82S HX 104
DES MOINES IA  PTCLDY    86  76  71 S9        29.90S HX  96
DAVENPORT IA   CLEAR     79  68  69 S12       30.00S
CHICAGO IL     CLEAR     78  63  59 S8        30.06S
EAU CLAIRE WI  CLOUDY    83  71  67 S14       29.91F
LA CROSSE WI   MOCLDY    83  68  60 S8        29.93R
$$

  *****  SOME NATIONAL WEATHER *****

CITY           SKY/WX    TMP DP  RH WIND       PRES   REMARKS
LA GUARDIA NY  PTCLDY    74  61  63 S8        30.17R
RALEIGH NC     CLOUDY    73  70  88 SE5       30.17R
ATLANTA GA     CLOUDY    78  72  81 E3        30.09R
NEW ORLEANS LA PTCLDY    83  71  67 N3        29.99R
OKLAHOMA CITY  PTCLDY    84  72  67 S6        30.00R
ALBUQUERQUE NM MOCLDY    91  39  16 W8        30.15R
SALT LAKE CITY MOCLDY    91  27  10 S9        30.00R
LOS ANGELES CA MOSUNNY   71  62  73 W16G24    30.00S
BOISE ID       CLOUDY    81  51  35 CALM      30.01S
SEATTLE WA     MOSUNNY   73  49  42 W5        29.99S
$$

*** WEATHER ACROSS MANITOBA...SASKATCHEWAN AND ONTARIO ***
                ***ONTARIO***

CITY           SKY/WX    TMP DP  RH WIND       PRES   REMARKS
GERALDTON      MOCLDY    79  68  69 SW9       29.88R
THUNDER BAY    MOCLDY    68  64  88 NE6       29.86S
SIOUX LOOKOUT  TSTM      68  64  88 E5        29.85F
TORONTO        PTCLDY    73  61  64 SE6       30.12R
BIG TROUT LK   MOCLDY    66  52  59 NW9G17    29.81S
PICKLE LAKE    MOCLDY    75  52  43 NW3       29.85S
DRYDEN         CLOUDY    68  66  94 NE7       29.83F THUNDER
KENORA         TSTM      68  64  88 NE14      29.82F
$$
                *** MANITOBA***

CITY           SKY/WX    TMP DP  RH WIND       PRES   REMARKS
BRANDON        CLOUDY    66  64  94 N6        29.86F
DAUPHIN        PTCLDY    70  59  68 NW3       29.89R
ISLAND LAKE    MOCLDY    68  52  56 N8        29.87S
PILOT MOUND      N/A     63  59  88 N12G17      N/A
THE PAS        PTCLDY    70  48  46 N5        29.89F
THOMPSON       MOCLDY    55  50  82 NE7       29.97
WINNIPEG       LGT RAIN  66  61  82 NE9       29.81F
LYNN LAKE      MOCLDY    59  52  77 N6        29.98S
CHURCHILL      PTCLDY    52  45  76 N5        29.92R
GILLAM         MOCLDY    54  48  82 N7        29.94R
$$
                ***SASKATCHEWAN***

CITY           SKY/WX    TMP DP  RH WIND       PRES   REMARKS
ESTEVAN        MOCLDY    68  63  83 N3        29.95R
KINDERSLEY     MOSUNNY   66  57  72 N6        30.00R
LLOYDMINSTER   MOSUNNY   66  50  55 N5        30.00R
PRINCE ALBERT  MOCLDY    70  55  60 NW2       29.95R
REGINA         MOCLDY    68  54  60 E2        29.97R
YORKTON        MOCLDY    68  61  77 NE3       29.94R


USA.gov is the U.S. government's official web portal to all federal, state and local government web resources and services.